Flag for Mexico Weather past 2 weeks in Merida, Yucatán, Mexico

Now
97 °F

Scattered clouds.


Feels Like: 100 °F
Forecast: N/A
Wind: 8 mph from East

Location: Aerop. Internacional Merida - Yuc

Current Time: Aug 1, 2015 at 3:47:59 PM

Latest Report: Aug 1, 2015 at 2:48 PM


Visibility: 7 mi

Pressure: 29.90 "Hg

Humidity: 37%

Dew point: 66 °F

Location of MeridaLocation

Historic Weather in Merida — Graph

°F

Merida temperature yesterday

Maximum temperature yesterday: 97 °F (at 2:47 PM)
Minimum temperature yesterday: 72 °F (at 5:44 AM)
Average temperature yesterday: 83 °F

Past Weeks' High & Low Weather Summary

 TemperatureHumidityPressure
High100 °F (Jul 24, 3:45 PM)94% (Jul 18, 4:52 AM)30.05 "Hg (Jul 18, 4:52 AM)
Low72 °F (Jul 21, 5:46 AM)27% (Jul 27, 3:46 PM)29.88 "Hg (Jul 26, 4:50 PM)
Average84 °F69%29.98 "Hg
* Reported Jul 17 1:46 PM — Aug 1 1:51 PM, Merida, Weather by CustomWeather, © 2015

Note: Actual official high and low records may vary slightly from our data, if they occured in-between our weather recording intervals... More about our weather records

Advertising

Merida weather history for previous 24 hours

 ConditionsComfort  
Time TempWeatherWind HumidityBarometerVisibility
1:51 PM
Sat, Aug 1
97 °FScattered clouds.9 mph37%29.93 "Hg7 mi
12:48 PM97 °FScattered clouds.7 mph39%29.95 "Hg7 mi
11:47 AM93 °FPassing clouds.7 mph44%29.96 "Hg7 mi
10:46 AM91 °FSunny.7 mph52%29.97 "Hg7 mi
9:47 AM88 °FSunny.7 mph62%29.93 "Hg7 mi
8:49 AM82 °FSunny.7 mph74%29.97 "Hg6 mi
7:46 AM77 °FPassing clouds.9 mph79%29.95 "Hg6 mi
5:52 AM77 °FPassing clouds.9 mph83%29.95 "Hg7 mi
4:51 AM77 °FPassing clouds.9 mph83%29.95 "Hg7 mi
3:53 AM79 °FPassing clouds.8 mph79%29.97 "Hg7 mi
2:47 AM79 °FPassing clouds.5 mph84%29.97 "Hg7 mi
1:47 AM81 °FPassing clouds.6 mph84%29.98 "Hg7 mi
12:43 AM82 °FPassing clouds.7 mph79%30.00 "Hg7 mi
10:45 PM
Fri, Jul 31
82 °FClear.5 mph74%30.00 "Hg7 mi
9:43 PM82 °FClear.7 mph74%29.97 "Hg7 mi
8:45 PM82 °FClear.5 mph74%29.97 "Hg7 mi
7:42 PM84 °FPassing clouds.6 mph66%29.96 "Hg7 mi
6:51 PM86 °FScattered clouds.8 mph62%29.93 "Hg7 mi
5:46 PM91 °FScattered clouds.13 mph49%29.92 "Hg7 mi
4:54 PM93 °FScattered clouds.6 mph47%29.92 "Hg7 mi
Weather by CustomWeather, © 2015

See weather overviewHow to use our weather pages